Location: Unspecified
(0.0000°N, 0.0000°E)
Time: 12:35:35
(UTC+00:00)

SEEDS - Pass Details

Date: 02 October 2021
Orbit: 585 x 601 km, 97.6° (Epoch: 15 October)

Event Time Altitude Azimuth Distance (km) Brightness Sun altitude
Rises 04:44:27 0° 353° (N) 2,833 ? -16.2°
Reaches altitude 10° 04:46:49 10° 342° (NNW) 1,933 ? -15.6°
Maximum altitude 04:50:28 29° 281° (WNW) 1,103 ? -14.7°
Drops below altitude 10° 04:54:08 10° 221° (SW) 1,938 ? -13.8°
Sets 04:56:31 0° 210° (SSW) 2,841 ? -13.2°
